Weather Roundup
Issued by NWS

Home | Current Version | Previous Version | Graphics & Text | Print | Product List | Glossary Off
Versions: 1 2 3 4 5 6 7 8 9 10 11 12 13 14 15 16 17 18 19 20 21 22 23 24 25 26 27 28 29 30 31 32 33 34 35 36 37 38 39 40 41 42 43 44 45 46 47 48 49 50

743
NZUS93 KARX 261159
HRRWXR

CURRENT HOURLY OBSERVATIONS ACROSS
MUCH OF THE UPPER MISSISSIPPI VALLEY
NATIONAL WEATHER SERVICE LA CROSSE WI
700 AM CDT THU MAY 26 2016


...SOUTHEAST MINNESOTA...


CITY           SKY/WX    TMP DP  RH WIND       PRES   REMARKS
ROCHESTER      CLOUDY    58  57  97 S8        29.81F
ROCHESTER/MAYO FAIR      58  58 100 S7        29.79F
WINONA         LGT RAIN  59  57  94 SE5       29.79F
AUSTIN         CLOUDY    57  55  94 S5        29.89R
ALBERT LEA     CLOUDY    57  57 100 SW3       29.84R
DODGE CENTER   CLOUDY    57  57 100 S8        29.82R
PRESTON        CLOUDY    56  55  94 S16       29.78F
OWATONNA       CLOUDY    61  55  82 SW7       29.82R
FARIBAULT      NOT AVBL
$$

...ELSEWHERE IN MINNESOTA...


CITY           SKY/WX    TMP DP  RH WIND       PRES   REMARKS
MINNEAPOLIS    CLOUDY    61  57  87 W6        29.79R
INTNL FALLS    CLOUDY    54  52  93 SE5       29.77R
DULUTH         FOG       45  44  97 E8        29.81R VSB 1/8
RED WING       CLOUDY    61  57  88 NW7       29.77R
REDWOOD FALLS  PTSUNNY   62  53  72 W10       29.81R
MANKATO        CLOUDY    61  54  77 SW7       29.83R
WORTHINGTON    SUNNY     59  56  89 W7        29.85R
FAIRMONT       CLOUDY    61  50  67 SW9       29.85S
$$

...SOUTHWEST WISCONSIN...


CITY           SKY/WX    TMP DP  RH WIND       PRES   REMARKS
LA CROSSE      RAIN      61  59  93 SE7       29.85F
PRAIRIE DU CHI LGT RAIN  61  59  94 NW5       29.88F
BOSCOBEL       LGT RAIN  64  60  87 NW16G29   29.83F
LONE ROCK      TSTM      66  61  84 W17G31    29.88R
PLATTEVILLE    CLOUDY    65  60  84 W18G32    29.89R
FORT MC COY    TSTM      60  60 100 W7        29.89R
CAMP DOUGLAS   TSTM      63 N/A N/A SW15      29.90R
MAUSTON-NEW LI CLOUDY    61  61  99 S5        29.83R
VIROQUA        CLOUDY    60  60 100 W14       29.90R
WIS DELLS      CLOUDY    64  60  86 SW8       29.86R
$$

...ELSEWHERE IN WISCONSIN...


CITY           SKY/WX    TMP DP  RH WIND       PRES   REMARKS
MILWAUKEE      PTSUNNY   66  64  93 S9        29.89R FOG
MADISON        CLOUDY    67  63  87 S6        29.86F THUNDER
GREEN BAY      FOG       63  63 100 S3        29.85R VSB<1/4
EAU CLAIRE     NOT AVBL
BLACK RVR FLS  CLOUDY    61  61 100 S6G17     29.85R
MEDFORD        FOG       60  60 100 SE3       29.82F VSB 1/4
WAUSAU         FOG       63  50  63 E5        29.82R VSB 1/4
WIS RAPIDS     CLOUDY    60  58  92 S3        29.85R FOG
MARSHFIELD     FOG       61  59  93 NE3       29.83R VSB 3/4
RICE LAKE      CLOUDY    60  59  96 E3        29.80F FOG
$$

...NORTHEAST IOWA...


CITY           SKY/WX    TMP DP  RH WIND       PRES   REMARKS
WATERLOO       PTSUNNY   60  57  89 NW3       29.86R
DUBUQUE        CLOUDY    62  57  83 NW13G25   29.86F
DECORAH        CLOUDY    59  59 100 E9        29.83F
MASON CITY     CLOUDY    58  57  97 S10       29.85R
CHARLES CITY   CLOUDY    59  59 100 SE7       29.86R
OELWEIN        CLOUDY    59  57  94 N10       29.86F
$$

...ELSEWHERE IN IOWA...


CITY           SKY/WX    TMP DP  RH WIND       PRES   REMARKS
DES MOINES     CLOUDY    62  58  86 S7        29.88S
IOWA CITY      PTSUNNY   63  57  81 E3        29.90F
FORT DODGE     SUNNY     57  54  88 SW5       29.87S
MARSHALLTOWN   NOT AVBL
CEDAR RAPIDS   CLOUDY    62  59  90 NE6       29.86F
$$

...NORTHERN ILLINOIS...


CITY           SKY/WX    TMP DP  RH WIND       PRES   REMARKS
CHICAGO-OHARE  CLOUDY    69  66  90 S10       29.92R
CHICAGO-MIDWAY CLOUDY    70  65  84 SW9       29.93R
MOLINE         CLOUDY    67  60  78 N9        29.94R
ROCKFORD       CLOUDY    69  65  86 S8        29.91F
PEORIA         TSTM      67  63  87 SW7       29.98R
$$

NOTE: "FAIR" INDICATES FEW OR NO CLOUDS BELOW 12,000 FEET WITH NO
SIGNIFICANT WEATHER AND/OR OBSTRUCTIONS TO VISIBILITY. WIND
SPEEDS ARE IN MILES-PER-HOUR.




USA.gov is the U.S. government's official web portal to all federal, state and local government web resources and services.